| time (UTC) | temp F | wind direction | speed MPH | gust MPH | rain 1hr in | rain 24hr in | rain mn in | humidity % | barometer mb |
| 20260505073506 | 60 | 214 | 8.0 | 14.0 | 0.00 | 0.00 | 0.00 | 67 | 1005.8 |
| 20260505073004 | 60 | 203 | 6.0 | 12.0 | 0.00 | 0.00 | 0.00 | 66 | 1005.9 |
| 20260505072505 | 60 | 221 | 4.0 | 12.0 | 0.00 | 0.00 | 0.00 | 67 | 1005.9 |
| 20260505072013 | 60 | 224 | 6.0 | 12.0 | 0.00 | 0.00 | 0.00 | 66 | 1005.8 |
| 20260505071504 | 60 | 247 | 7.0 | 12.0 | 0.00 | 0.00 | 0.00 | 66 | 1005.8 |
| 20260505071004 | 60 | 188 | 5.0 | 17.0 | 0.00 | 0.00 | 0.00 | 66 | 1005.8 |
| 20260505070741 | 60 | 266 | 3.0 | 17.0 | 0.00 | 0.00 | 0.00 | 66 | 1005.8 |
| 20260505070006 | 60 | 190 | 5.0 | 11.0 | 0.00 | 0.00 | 0.00 | 66 | 1005.8 |
| 20260505065503 | 60 | 195 | 4.0 | 10.0 | 0.00 | 0.00 | 0.00 | 66 | 1005.8 |
| 20260505065017 | 60 | 257 | 3.0 | 11.0 | 0.00 | 0.00 | 0.00 | 66 | 1005.9 |
| 20260505064005 | 60 | 237 | 3.0 | 9.0 | 0.00 | 0.00 | 0.00 | 65 | 1005.9 |
| 20260505063506 | 60 | 182 | 5.0 | 9.0 | 0.00 | 0.00 | 0.00 | 65 | 1006.1 |
| 20260505063004 | 60 | 173 | 3.0 | 14.0 | 0.00 | 0.00 | 0.00 | 65 | 1006.1 |
| 20260505062506 | 60 | 251 | 3.0 | 14.0 | 0.00 | 0.00 | 0.00 | 65 | 1006.1 |
| 20260505062006 | 60 | 179 | 6.0 | 12.0 | 0.00 | 0.00 | 0.00 | 65 | 1006.1 |
| 20260505061504 | 60 | 212 | 5.0 | 11.0 | 0.00 | 0.00 | 0.00 | 65 | 1006.1 |
| 20260505061005 | 60 | 196 | 4.0 | 14.0 | 0.00 | 0.00 | 0.00 | 65 | 1006.2 |
| 20260505060505 | 61 | 200 | 4.0 | 14.0 | 0.00 | 0.00 | 0.00 | 65 | 1006.1 |
| 20260505060004 | 61 | 221 | 5.0 | 15.0 | 0.00 | 0.00 | 0.00 | 64 | 1006.2 |
| 20260505055506 | 61 | 237 | 6.0 | 15.0 | 0.00 | 0.00 | 0.00 | 64 | 1006.4 |
| 20260505055002 | 61 | 189 | 6.0 | 15.0 | 0.00 | 0.00 | 0.00 | 64 | 1006.2 |
| 20260505054506 | 61 | 214 | 7.0 | 18.0 | 0.00 | 0.00 | 0.00 | 64 | 1006.2 |
| 20260505054004 | 61 | 214 | 8.0 | 18.0 | 0.00 | 0.00 | 0.00 | 64 | 1006.2 |
| 20260505053504 | 61 | 227 | 6.0 | 17.0 | 0.00 | 0.00 | 0.00 | 64 | 1006.4 |
| 20260505053004 | 61 | 182 | 7.0 | 18.0 | 0.00 | 0.00 | 0.00 | 64 | 1006.5 |
| 20260505052504 | 61 | 190 | 8.0 | 18.0 | 0.00 | 0.00 | 0.00 | 64 | 1006.4 |
| 20260505052006 | 61 | 172 | 7.0 | 14.0 | 0.00 | 0.00 | 0.00 | 64 | 1006.5 |
| 20260505051504 | 61 | 224 | 8.0 | 14.0 | 0.00 | 0.00 | 0.00 | 63 | 1006.6 |
| 20260505051004 | 61 | 203 | 5.0 | 14.0 | 0.00 | 0.00 | 0.00 | 63 | 1006.5 |
| 20260505050505 | 61 | 223 | 6.0 | 14.0 | 0.00 | 0.00 | 0.00 | 62 | 1006.6 |
| 20260505041506 | 62 | 217 | 7.0 | 17.0 | 0.00 | 0.00 | 0.00 | 61 | 1006.6 |
| 20260505041027 | 62 | 197 | 8.0 | 14.0 | 0.00 | 0.00 | 0.00 | 61 | 1006.6 |
| 20260505041019 | 62 | 176 | 8.0 | 17.0 | 0.00 | 0.00 | 0.00 | 61 | 1006.6 |
| 20260505040006 | 62 | 182 | 7.0 | 14.0 | 0.00 | 0.00 | 0.00 | 61 | 1006.6 |
| 20260505035504 | 62 | 203 | 7.0 | 13.0 | 0.00 | 0.00 | 0.00 | 61 | 1006.6 |
| 20260505035006 | 62 | 223 | 8.0 | 13.0 | 0.00 | 0.00 | 0.00 | 60 | 1006.6 |
| 20260505034523 | 62 | 195 | 6.0 | 16.0 | 0.00 | 0.00 | 0.00 | 60 | 1006.4 |
| 20260505034507 | 62 | 245 | 5.0 | 16.0 | 0.00 | 0.00 | 0.00 | 60 | 1006.6 |
| 20260505033506 | 62 | 203 | 6.0 | 16.0 | 0.00 | 0.00 | 0.00 | 61 | 1006.5 |
| 20260505033104 | 62 | 210 | 6.0 | 15.0 | 0.00 | 0.00 | 0.00 | 61 | 1006.4 |
| 20260505033050 | 62 | 219 | 8.0 | 16.0 | 0.00 | 0.00 | 0.00 | 61 | 1006.5 |
| 20260505032242 | 63 | 268 | 6.0 | 22.0 | 0.00 | 0.00 | 0.00 | 60 | 1006.5 |
| 20260505031801 | 63 | 226 | 6.0 | 22.0 | 0.00 | 0.00 | 0.00 | 59 | 1006.2 |
| 20260505031004 | 63 | 207 | 10.0 | 19.0 | 0.00 | 0.00 | 0.00 | 58 | 1006.4 |
| 20260505030745 | 64 | 199 | 9.0 | 20.0 | 0.00 | 0.00 | 0.00 | 56 | 1006.5 |
| 20260505030011 | 64 | 245 | 7.0 | 20.0 | 0.00 | 0.00 | 0.00 | 56 | 1006.6 |
| 20260505025504 | 64 | 216 | 10.0 | 20.0 | 0.00 | 0.00 | 0.00 | 55 | 1006.5 |
| 20260505025012 | 64 | 200 | 8.0 | 23.0 | 0.00 | 0.00 | 0.00 | 53 | 1006.4 |
| 20260505024504 | 64 | 220 | 6.0 | 29.0 | 0.00 | 0.00 | 0.00 | 52 | 1006.4 |
| 20260505024020 | 64 | 190 | 15.0 | 29.0 | 0.00 | 0.00 | 0.00 | 52 | 1006.6 |
| 20260505023522 | 64 | 231 | 11.0 | 20.0 | 0.00 | 0.00 | 0.00 | 51 | 1006.5 |
| 20260505022742 | 64 | 192 | 8.0 | 17.0 | 0.00 | 0.00 | 0.00 | 50 | 1006.7 |
| 20260505022004 | 64 | 193 | 10.0 | 17.0 | 0.00 | 0.00 | 0.00 | 49 | 1006.7 |
| 20260505021507 | 64 | 227 | 7.0 | 15.0 | 0.00 | 0.00 | 0.00 | 48 | 1006.8 |
| 20260505021004 | 64 | 165 | 8.0 | 15.0 | 0.00 | 0.00 | 0.00 | 48 | 1006.9 |
| 20260505020504 | 64 | 199 | 7.0 | 18.0 | 0.00 | 0.00 | 0.00 | 48 | 1006.7 |
| 20260505020004 | 64 | 213 | 7.0 | 18.0 | 0.00 | 0.00 | 0.00 | 47 | 1006.8 |
| 20260505015743 | 64 | 250 | 6.0 | 13.0 | 0.00 | 0.00 | 0.00 | 47 | 1006.9 |
| 20260505015004 | 64 | 173 | 4.0 | 15.0 | 0.00 | 0.00 | 0.00 | 46 | 1006.8 |
| 20260505014504 | 64 | 226 | 7.0 | 15.0 | 0.00 | 0.00 | 0.00 | 46 | 1006.8 |
| 20260505014005 | 64 | 183 | 6.0 | 13.0 | 0.00 | 0.00 | 0.00 | 46 | 1006.7 |
| 20260505013745 | 65 | 190 | 6.0 | 17.0 | 0.00 | 0.00 | 0.00 | 45 | 1006.5 |
| 20260505013006 | 65 | 204 | 5.0 | 17.0 | 0.00 | 0.00 | 0.00 | 45 | 1006.6 |
| 20260505012504 | 65 | 237 | 4.0 | 12.0 | 0.00 | 0.00 | 0.00 | 45 | 1006.6 |
| 20260505012034 | 65 | 209 | 6.0 | 15.0 | 0.00 | 0.00 | 0.00 | 44 | 1006.4 |
| 20260505012024 | 65 | 199 | 4.0 | 15.0 | 0.00 | 0.00 | 0.00 | 45 | 1006.6 |
| 20260505011004 | 65 | 254 | 5.0 | 12.0 | 0.00 | 0.00 | 0.00 | 44 | 1006.5 |
| 20260505010506 | 65 | 199 | 7.0 | 12.0 | 0.00 | 0.00 | 0.00 | 44 | 1006.4 |
| 20260505010005 | 65 | 206 | 5.0 | 13.0 | 0.00 | 0.00 | 0.00 | 43 | 1006.4 |
| 20260505005505 | 66 | 202 | 5.0 | 13.0 | 0.00 | 0.00 | 0.00 | 43 | 1006.2 |
| 20260505005007 | 66 | 235 | 7.0 | 11.0 | 0.00 | 0.00 | 0.00 | 42 | 1006.1 |
| 20260505004505 | 66 | 148 | 3.0 | 15.0 | 0.00 | 0.00 | 0.00 | 42 | 1006.1 |
| 20260505004003 | 66 | 214 | 8.0 | 15.0 | 0.00 | 0.00 | 0.00 | 42 | 1006.1 |
| 20260505003505 | 66 | 204 | 5.0 | 14.0 | 0.00 | 0.00 | 0.00 | 42 | 1006.0 |
| 20260505003005 | 66 | 224 | 8.0 | 14.0 | 0.00 | 0.00 | 0.00 | 41 | 1006.1 |
| 20260505002504 | 67 | 227 | 6.0 | 13.0 | 0.00 | 0.00 | 0.00 | 41 | 1005.9 |
| 20260505002004 | 67 | 192 | 6.0 | 14.0 | 0.00 | 0.00 | 0.00 | 40 | 1005.9 |
| 20260505001504 | 67 | 230 | 8.0 | 16.0 | 0.00 | 0.00 | 0.00 | 40 | 1006.0 |
| 20260505001004 | 67 | 234 | 8.0 | 20.0 | 0.00 | 0.00 | 0.00 | 39 | 1005.9 |
| 20260505000506 | 67 | 157 | 8.0 | 23.0 | 0.00 | 0.00 | 0.00 | 39 | 1005.9 |
| 20260505000242 | 68 | 244 | 11.0 | 23.0 | 0.00 | 0.00 | 0.00 | 38 | 1005.8 |
| 20260504235506 | 68 | 209 | 6.0 | 22.0 | 0.00 | 0.00 | 0.00 | 37 | 1005.8 |
| 20260504235004 | 68 | 200 | 11.0 | 22.0 | 0.00 | 0.00 | 0.00 | 36 | 1005.7 |
| 20260504234504 | 69 | 275 | 7.0 | 17.0 | 0.00 | 0.00 | 0.00 | 35 | 1005.7 |
| 20260504234007 | 69 | 230 | 6.0 | 17.0 | 0.00 | 0.00 | 0.00 | 35 | 1005.5 |
| 20260504233505 | 69 | 251 | 8.0 | 16.0 | 0.00 | 0.00 | 0.00 | 33 | 1005.3 |
| 20260504233005 | 69 | 212 | 7.0 | 20.0 | 0.00 | 0.00 | 0.00 | 33 | 1005.4 |
| 20260504232741 | 69 | 207 | 5.0 | 20.0 | 0.00 | 0.00 | 0.00 | 33 | 1005.3 |
| 20260504232004 | 70 | 247 | 6.0 | 18.0 | 0.00 | 0.00 | 0.00 | 33 | 1005.5 |
| 20260504231502 | 70 | 268 | 9.0 | 18.0 | 0.00 | 0.00 | 0.00 | 34 | 1005.3 |
| 20260504231004 | 70 | 224 | 10.0 | 18.0 | 0.00 | 0.00 | 0.00 | 32 | 1005.4 |
| 20260504230504 | 70 | 210 | 8.0 | 19.0 | 0.00 | 0.00 | 0.00 | 32 | 1005.4 |
| 20260504230006 | 70 | 162 | 6.0 | 19.0 | 0.00 | 0.00 | 0.00 | 32 | 1005.4 |
| 20260504225503 | 70 | 226 | 8.0 | 19.0 | 0.00 | 0.00 | 0.00 | 30 | 1005.4 |
| 20260504225006 | 71 | 240 | 8.0 | 19.0 | 0.00 | 0.00 | 0.00 | 32 | 1005.2 |
| 20260504224504 | 71 | 264 | 9.0 | 21.0 | 0.00 | 0.00 | 0.00 | 30 | 1005.3 |
| 20260504224207 | 71 | 251 | 12.0 | 20.0 | 0.00 | 0.00 | 0.00 | 31 | 1005.2 |
| 20260504224142 | 71 | 250 | 8.0 | 21.0 | 0.00 | 0.00 | 0.00 | 30 | 1005.3 |
| 20260504223239 | 71 | 266 | 11.0 | 18.0 | 0.00 | 0.00 | 0.00 | 31 | 1005.1 |
| 20260504222503 | 72 | 214 | 10.0 | 18.0 | 0.00 | 0.00 | 0.00 | 29 | 1005.3 |
| 20260504222004 | 72 | 272 | 7.0 | 16.0 | 0.00 | 0.00 | 0.00 | 31 | 1005.2 |
| 20260504221743 | 72 | 274 | 8.0 | 18.0 | 0.00 | 0.00 | 0.00 | 31 | 1005.1 |
| 20260504221006 | 71 | 217 | 11.0 | 18.0 | 0.00 | 0.00 | 0.00 | 31 | 1005.1 |
| 20260504220504 | 71 | 224 | 7.0 | 18.0 | 0.00 | 0.00 | 0.00 | 32 | 1005.1 |
| 20260504220242 | 71 | 197 | 8.0 | 18.0 | 0.00 | 0.00 | 0.00 | 33 | 1005.2 |
| 20260504215505 | 71 | 235 | 10.0 | 18.0 | 0.00 | 0.00 | 0.00 | 32 | 1005.3 |
| 20260504215241 | 71 | 196 | 9.0 | 21.0 | 0.00 | 0.00 | 0.00 | 31 | 1005.2 |
| 20260504214506 | 71 | 197 | 11.0 | 24.0 | 0.00 | 0.00 | 0.00 | 31 | 1005.3 |
| 20260504214001 | 72 | 159 | 12.0 | 24.0 | 0.00 | 0.00 | 0.00 | 32 | 1005.3 |
| 20260504213502 | 73 | 227 | 9.0 | 21.0 | 0.00 | 0.00 | 0.00 | 30 | 1005.2 |
| 20260504213001 | 73 | 241 | 7.0 | 16.0 | 0.00 | 0.00 | 0.00 | 34 | 1005.2 |
| 20260504212738 | 73 | 234 | 10.0 | 16.0 | 0.00 | 0.00 | 0.00 | 32 | 1005.2 |
| 20260504212242 | 73 | 216 | 8.0 | 12.0 | 0.00 | 0.00 | 0.00 | 32 | 1005.1 |
| 20260504211501 | 73 | 213 | 5.0 | 17.0 | 0.00 | 0.00 | 0.00 | 32 | 1005.0 |
| 20260504211001 | 73 | 169 | 9.0 | 17.0 | 0.00 | 0.00 | 0.00 | 34 | 1005.2 |
| 20260504210504 | 73 | 248 | 6.0 | 15.0 | 0.00 | 0.00 | 0.00 | 32 | 1005.1 |
| 20260504210001 | 73 | 221 | 5.0 | 15.0 | 0.00 | 0.00 | 0.00 | 30 | 1005.2 |
| 20260504205501 | 73 | 244 | 7.0 | 17.0 | 0.00 | 0.00 | 0.00 | 30 | 1005.2 |
| 20260504205001 | 73 | 233 | 6.0 | 17.0 | 0.00 | 0.00 | 0.00 | 32 | 1005.3 |
| 20260504204502 | 73 | 259 | 8.0 | 16.0 | 0.00 | 0.00 | 0.00 | 30 | 1005.2 |
| 20260504204242 | 73 | 237 | 9.0 | 16.0 | 0.00 | 0.00 | 0.00 | 32 | 1005.3 |
| 20260504203504 | 73 | 286 | 8.0 | 15.0 | 0.00 | 0.00 | 0.00 | 33 | 1005.4 |
| 20260504203005 | 73 | 202 | 9.0 | 15.0 | 0.00 | 0.00 | 0.00 | 34 | 1005.4 |
| 20260504202503 | 73 | 247 | 7.0 | 13.0 | 0.00 | 0.00 | 0.00 | 31 | 1005.5 |
| 20260504202223 | 73 | 231 | 9.0 | 17.0 | 0.00 | 0.00 | 0.00 | 34 | 1005.6 |
| 20260504201001 | 72 | 230 | 9.0 | 20.0 | 0.00 | 0.00 | 0.00 | 32 | 1005.8 |
| 20260504200502 | 72 | 250 | 9.0 | 26.0 | 0.00 | 0.00 | 0.00 | 34 | 1005.8 |
| 20260504200005 | 72 | 245 | 12.0 | 26.0 | 0.00 | 0.00 | 0.00 | 32 | 1005.9 |
| 20260504195502 | 72 | 255 | 8.0 | 17.0 | 0.00 | 0.00 | 0.00 | 35 | 1005.9 |
| 20260504195002 | 72 | 241 | 8.0 | 16.0 | 0.00 | 0.00 | 0.00 | 36 | 1006.0 |
| 20260504194501 | 71 | 235 | 8.0 | 22.0 | 0.00 | 0.00 | 0.00 | 35 | 1006.2 |
| 20260504194242 | 71 | 217 | 13.0 | 22.0 | 0.00 | 0.00 | 0.00 | 34 | 1006.7 |
| 20260504193505 | 72 | 228 | 9.0 | 22.0 | 0.00 | 0.00 | 0.00 | 36 | 1006.5 |
| 20260504193004 | 72 | 221 | 10.0 | 21.0 | 0.00 | 0.00 | 0.00 | 35 | 1006.6 |
| 20260504192504 | 71 | 186 | 9.0 | 22.0 | 0.00 | 0.00 | 0.00 | 35 | 1006.7 |
| 20260504192003 | 71 | 190 | 7.0 | 22.0 | 0.00 | 0.00 | 0.00 | 34 | 1006.7 |
| 20260504191501 | 71 | 188 | 12.0 | 21.0 | 0.00 | 0.00 | 0.00 | 35 | 1006.7 |
| 20260504191226 | 71 | 250 | 12.0 | 21.0 | 0.00 | 0.00 | 0.00 | 37 | 1006.8 |
| 20260504185504 | 70 | 241 | 8.0 | 19.0 | 0.00 | 0.00 | 0.00 | 38 | 1006.7 |
| 20260504185032 | 70 | 276 | 11.0 | 21.0 | 0.00 | 0.00 | 0.00 | 36 | 1006.9 |
| 20260504185020 | 70 | 241 | 10.0 | 20.0 | 0.00 | 0.00 | 0.00 | 35 | 1006.9 |
| 20260504184001 | 70 | 235 | 10.0 | 21.0 | 0.00 | 0.00 | 0.00 | 38 | 1006.9 |
| 20260504183742 | 69 | 276 | 8.0 | 23.0 | 0.00 | 0.00 | 0.00 | 39 | 1007.0 |
| 20260504183005 | 69 | 214 | 9.0 | 23.0 | 0.00 | 0.00 | 0.00 | 37 | 1007.1 |
| 20260504182504 | 69 | 241 | 12.0 | 34.0 | 0.00 | 0.00 | 0.00 | 37 | 1007.1 |
| 20260504182005 | 69 | 237 | 10.0 | 34.0 | 0.00 | 0.00 | 0.00 | 40 | 1007.0 |
| 20260504181741 | 69 | 223 | 17.0 | 30.0 | 0.00 | 0.00 | 0.00 | 39 | 1007.2 |
| 20260504181001 | 68 | 228 | 15.0 | 23.0 | 0.00 | 0.00 | 0.00 | 40 | 1007.1 |
| 20260504180956 | 68 | 244 | 12.0 | 24.0 | 0.00 | 0.00 | 0.00 | 39 | 1007.1 |
| 20260504180001 | 68 | 266 | 15.0 | 24.0 | 0.00 | 0.00 | 0.00 | 37 | 1007.2 |
| 20260504175502 | 68 | 185 | 11.0 | 30.0 | 0.00 | 0.00 | 0.00 | 40 | 1007.1 |
| 20260504175002 | 68 | 243 | 11.0 | 30.0 | 0.00 | 0.00 | 0.00 | 40 | 1007.2 |
| 20260504174502 | 67 | 264 | 13.0 | 26.0 | 0.00 | 0.00 | 0.00 | 43 | 1007.2 |
| 20260504174241 | 67 | 271 | 12.0 | 26.0 | 0.00 | 0.00 | 0.00 | 44 | 1007.4 |
| 20260504173502 | 66 | 262 | 10.0 | 27.0 | 0.00 | 0.00 | 0.00 | 45 | 1007.5 |
| 20260504173028 | 65 | 278 | 17.0 | 29.0 | 0.00 | 0.00 | 0.00 | 43 | 1007.4 |
| 20260504173017 | 66 | 286 | 13.0 | 27.0 | 0.00 | 0.00 | 0.00 | 43 | 1007.3 |
| 20260504172005 | 66 | 261 | 15.0 | 29.0 | 0.00 | 0.00 | 0.00 | 44 | 1007.5 |
| 20260504171738 | 66 | 254 | 12.0 | 27.0 | 0.00 | 0.00 | 0.00 | 46 | 1007.5 |
| 20260504171004 | 66 | 327 | 8.0 | 16.0 | 0.00 | 0.00 | 0.00 | 48 | 1007.6 |
| 20260504170742 | 65 | 241 | 9.0 | 18.0 | 0.00 | 0.00 | 0.00 | 48 | 1007.6 |
| 20260504151001 | 59 | 266 | 10.0 | 22.0 | 0.00 | 0.00 | 0.00 | 53 | 1009.0 |
| 20260504150505 | 59 | 233 | 9.0 | 19.0 | 0.00 | 0.00 | 0.00 | 54 | 1009.0 |
| 20260504141241 | 56 | 224 | 11.0 | 21.0 | 0.00 | 0.00 | 0.00 | 53 | 1009.4 |
| 20260504140501 | 56 | 226 | 6.0 | 21.0 | 0.00 | 0.00 | 0.00 | 54 | 1009.5 |
| 20260504130504 | 50 | 233 | 7.0 | 18.0 | 0.00 | 0.00 | 0.00 | 58 | 1010.1 |
| 20260504110501 | 44 | 159 | 4.0 | 10.0 | 0.00 | 0.00 | 0.00 | 63 | 1009.9 |
| 20260504100503 | 43 | 204 | 5.0 | 9.0 | 0.00 | 0.00 | 0.00 | 64 | 1009.8 |
| 20260504082000 | 45 | 209 | 4.0 | 10.0 | 0.00 | 0.00 | 0.00 | 61 | 1010.2 |
| 20260504081500 | 45 | 223 | 3.0 | 10.0 | 0.00 | 0.00 | 0.00 | 61 | 1010.2 |
| 20260504081001 | 45 | 176 | 4.0 | 7.0 | 0.00 | 0.00 | 0.00 | 61 | 1010.4 |
| 20260504080501 | 45 | 227 | 3.0 | 11.0 | 0.00 | 0.00 | 0.00 | 61 | 1010.4 |